Washington, GA

1:17 AM EDT on April 27, 2017 (GMT -0400)
Washington-Wilkes County

Weather History for KIIY - February, 2013

Change the Weather History Date:

Friday, February 22, 2013

  Actual Average (KDBN) Record (KDBN)
Temperature  
Mean Temperature 47 °F -  
Max Temperature 53 °F 66 °F 80 °F (1976)
Min Temperature 41 °F 39 °F 19 °F (1963)
Degree Days  
Heating Degree Days 18    
Moisture  
Dew Point 40 °F    
Average Humidity 93    
Maximum Humidity 100    
Minimum Humidity 38    
Precipitation  
Precipitation 0.00 in - - ()
Sea Level Pressure  
Sea Level Pressure 30.14 in    
Wind  
Wind Speed 6 mph (NE)    
Max Wind Speed 13 mph    
Max Gust Speed 23 mph    
Visibility 4 miles    
Events Rain    
Averages and records for this station are not official NWS values.
T = Trace of Precipitation, MM = Missing Value Source: NWS Daily Summary

Daily Weather History Graph

Daily Weather History Graph

Search for Another Location

Airport or City:

Trip Planner

Search our weather history database for the weather conditions in past years. The results will help you decide how hot, cold, wet, or windy it might be!

Date:

Astronomy

Feb. 22, 2013 Rise Set
Actual Time 7:07 AM EST 6:22 PM EST
Civil Twilight 6:42 AM EST 6:47 PM EST
Nautical Twilight 6:13 AM EST 7:16 PM EST
Astronomical Twilight 5:44 AM EST 7:45 PM EST
Moon 3:37 PM EST (2/22) 4:46 AM EST (2/22)
Length of Visible Light 12h 04m
Length of Day
11h 14m
Waxing Gibbous, 90% of the Moon is Illuminated
Feb 22
Waxing Gibbous
Feb 25
Full
Mar 4
Last Quarter
Mar 11
New
Mar 19
First Quarter

Hourly Weather History & Observations

Time (EST) Temp. Windchill Dew Point Humidity Pressure Visibility Wind Dir Wind Speed Gust Speed Precip Events Conditions
12:15 AM 53.6 °F - 28.4 °F 38% 30.10 in 10.0 mi East 5.8 mph - N/A   Overcast
12:35 AM 53.6 °F - 30.2 °F 41% 30.10 in 10.0 mi East 8.1 mph - N/A   Overcast
1:15 AM 53.6 °F - 30.2 °F 41% 30.13 in 10.0 mi NE 5.8 mph - N/A   Mostly Cloudy
1:35 AM 53.6 °F - 32.0 °F 44% 30.16 in 10.0 mi NNE 3.5 mph - N/A   Overcast
1:55 AM 53.6 °F - 30.2 °F 41% 30.17 in 10.0 mi NNE 4.6 mph - N/A   Overcast
2:15 AM 53.6 °F - 30.2 °F 41% 30.18 in 10.0 mi NNE 5.8 mph - N/A   Overcast
2:35 AM 51.8 °F - 33.8 °F 50% 30.16 in 10.0 mi NE 5.8 mph - N/A Rain Light Rain
2:55 AM 46.4 °F 43.5 °F 37.4 °F 71% 30.16 in 10.0 mi ENE 5.8 mph - N/A Rain Light Rain
3:15 AM 46.4 °F 45.2 °F 41.0 °F 81% 30.17 in 7.0 mi ENE 3.5 mph - N/A Rain Rain
3:35 AM 44.6 °F - 42.8 °F 93% 30.16 in 3.0 mi Calm Calm - N/A Rain Rain
3:55 AM 44.6 °F 42.2 °F 42.8 °F 93% 30.15 in 5.0 mi ENE 4.6 mph - N/A Rain Rain
4:15 AM 42.8 °F 38.6 °F 42.8 °F 100% 30.17 in 4.0 mi NNE 6.9 mph - N/A Rain Heavy Rain
4:35 AM 42.8 °F 37.0 °F 42.8 °F 100% 30.13 in 5.0 mi ENE 10.4 mph 17.3 mph N/A Rain Rain
4:55 AM 42.8 °F 37.5 °F 42.8 °F 100% 30.11 in 7.0 mi ENE 9.2 mph 17.3 mph N/A Rain Light Rain
5:15 AM 42.8 °F 40.1 °F 42.8 °F 100% 30.15 in 7.0 mi ENE 4.6 mph 16.1 mph N/A Rain Rain
5:35 AM 42.8 °F 37.5 °F 42.8 °F 100% 30.14 in 4.0 mi East 9.2 mph 19.6 mph N/A Rain Rain
5:55 AM 42.8 °F 36.2 °F 42.8 °F 100% 30.13 in 5.0 mi East 12.7 mph 20.7 mph N/A Rain Rain
6:15 AM 42.8 °F 38.6 °F 42.8 °F 100% 30.15 in 2.0 mi East 6.9 mph 18.4 mph N/A   Overcast
6:35 AM 42.8 °F 37.0 °F 41.0 °F 93% 30.14 in 4.0 mi East 10.4 mph 17.3 mph N/A Rain Rain
6:55 AM 42.8 °F 37.5 °F 41.0 °F 93% 30.16 in 4.0 mi East 9.2 mph - N/A Rain Heavy Rain
7:15 AM 41.0 °F 34.3 °F 41.0 °F 100% 30.12 in 5.0 mi ESE 11.5 mph 23.0 mph N/A Rain Rain
7:35 AM 41.0 °F 35.8 °F 41.0 °F 100% 30.14 in 7.0 mi ENE 8.1 mph 16.1 mph N/A Rain Rain
7:55 AM 41.0 °F 37.1 °F 41.0 °F 100% 30.16 in 7.0 mi NE 5.8 mph - N/A   Overcast
8:35 AM 41.0 °F 37.1 °F 41.0 °F 100% 30.18 in 7.0 mi NNE 5.8 mph - N/A   Overcast
8:55 AM 41.0 °F 37.1 °F 41.0 °F 100% 30.18 in 5.0 mi NE 5.8 mph - N/A   Light Drizzle
9:15 AM 41.0 °F 38.0 °F 41.0 °F 100% 30.18 in 5.0 mi NE 4.6 mph - N/A   Overcast
9:35 AM 41.0 °F 37.1 °F 41.0 °F 100% 30.18 in 4.0 mi NE 5.8 mph - N/A Rain Rain
9:55 AM 41.0 °F 38.0 °F 41.0 °F 100% 30.19 in 5.0 mi NNE 4.6 mph - N/A   Heavy Drizzle
10:15 AM 41.0 °F 36.4 °F 41.0 °F 100% 30.19 in 3.0 mi NNE 6.9 mph - N/A   Drizzle
10:35 AM 41.0 °F 36.4 °F 41.0 °F 100% 30.18 in 3.0 mi NNE 6.9 mph - N/A   Drizzle
10:55 AM 41.0 °F 36.4 °F 41.0 °F 100% 30.19 in 3.0 mi NNE 6.9 mph - N/A   Drizzle
11:15 AM 41.0 °F 35.8 °F 41.0 °F 100% 30.18 in 3.0 mi NE 8.1 mph - N/A   Drizzle
11:35 AM 41.0 °F 36.4 °F 41.0 °F 100% 30.18 in 2.5 mi NE 6.9 mph - N/A   Drizzle
11:55 AM 41.0 °F 35.2 °F 41.0 °F 100% 30.17 in 2.5 mi ENE 9.2 mph - N/A   Drizzle
12:15 PM 41.0 °F 35.8 °F 41.0 °F 100% 30.16 in 2.5 mi NE 8.1 mph - N/A   Light Drizzle
12:35 PM 41.0 °F 35.8 °F 41.0 °F 100% 30.17 in 3.0 mi NE 8.1 mph - N/A   Drizzle
12:55 PM 41.0 °F 37.1 °F 41.0 °F 100% 30.16 in 2.0 mi NE 5.8 mph - N/A Rain Heavy Rain
1:15 PM 41.0 °F 39.0 °F 41.0 °F 100% 30.16 in 2.5 mi NE 3.5 mph - N/A   Drizzle
1:35 PM 41.0 °F 37.1 °F 41.0 °F 100% 30.15 in 2.5 mi NE 5.8 mph - N/A   Drizzle
1:55 PM 41.0 °F 38.0 °F 41.0 °F 100% 30.14 in 2.5 mi NE 4.6 mph - N/A   Overcast
2:15 PM 41.0 °F 37.1 °F 41.0 °F 100% 30.14 in 3.0 mi ENE 5.8 mph - N/A   Overcast
2:35 PM 41.0 °F 37.1 °F 41.0 °F 100% 30.14 in 2.0 mi NE 5.8 mph - N/A   Overcast
2:55 PM 41.0 °F 37.1 °F 41.0 °F 100% 30.14 in 1.5 mi NNE 5.8 mph - N/A   Overcast
3:15 PM 41.0 °F 35.8 °F 41.0 °F 100% 30.12 in 1.5 mi NE 8.1 mph - N/A   Overcast
3:35 PM 41.0 °F 38.0 °F 41.0 °F 100% 30.12 in 2.5 mi ENE 4.6 mph - N/A   Overcast
3:55 PM 41.0 °F 36.4 °F 41.0 °F 100% 30.11 in 3.0 mi ENE 6.9 mph - N/A   Overcast
4:15 PM 41.0 °F 35.8 °F 41.0 °F 100% 30.11 in 1.8 mi ENE 8.1 mph - N/A   Overcast
4:35 PM 41.0 °F 37.1 °F 41.0 °F 100% 30.11 in 2.0 mi NE 5.8 mph - N/A   Overcast
4:55 PM 41.0 °F 35.8 °F 41.0 °F 100% 30.11 in 2.0 mi NNE 8.1 mph - N/A   Overcast
5:15 PM 41.0 °F 36.4 °F 41.0 °F 100% 30.10 in 1.5 mi ENE 6.9 mph - N/A   Overcast
5:35 PM 41.0 °F 37.1 °F 41.0 °F 100% 30.09 in 1.2 mi ENE 5.8 mph - N/A   Overcast
5:55 PM 41.0 °F 38.0 °F 41.0 °F 100% 30.09 in 1.8 mi ENE 4.6 mph - N/A   Light Drizzle
6:15 PM 41.0 °F 37.1 °F 41.0 °F 100% 30.10 in 2.5 mi NE 5.8 mph - N/A   Overcast
6:35 PM 41.0 °F 38.0 °F 41.0 °F 100% 30.10 in 2.5 mi ENE 4.6 mph - N/A Rain Rain
6:55 PM 41.0 °F 39.0 °F 41.0 °F 100% 30.12 in 2.5 mi ENE 3.5 mph - N/A   Drizzle
7:15 PM 41.0 °F 38.0 °F 41.0 °F 100% 30.11 in 3.0 mi NE 4.6 mph - N/A   Drizzle
7:35 PM 41.0 °F - 41.0 °F 100% 30.11 in 5.0 mi Calm Calm - N/A   Light Drizzle
7:55 PM 41.0 °F 38.0 °F 41.0 °F 100% 30.12 in 5.0 mi NE 4.6 mph - N/A   Overcast
8:15 PM 41.0 °F 37.1 °F 41.0 °F 100% 30.13 in 3.0 mi NE 5.8 mph - N/A   Overcast
8:35 PM 41.0 °F 38.0 °F 41.0 °F 100% 30.14 in 3.0 mi NNE 4.6 mph - N/A   Overcast
8:55 PM 41.0 °F 37.1 °F 41.0 °F 100% 30.13 in 3.0 mi NE 5.8 mph - N/A   Overcast
9:15 PM 41.0 °F 38.0 °F 41.0 °F 100% 30.12 in 3.0 mi NE 4.6 mph - N/A   Overcast
9:35 PM 41.0 °F 38.0 °F 41.0 °F 100% 30.12 in 5.0 mi NE 4.6 mph - N/A   Overcast
9:55 PM 41.0 °F 38.0 °F 41.0 °F 100% 30.10 in 3.0 mi ENE 4.6 mph - N/A   Overcast
10:15 PM 41.0 °F 36.4 °F 41.0 °F 100% 30.09 in 2.5 mi ENE 6.9 mph - N/A   Overcast
10:35 PM 41.0 °F 39.0 °F 41.0 °F 100% 30.11 in 2.0 mi ENE 3.5 mph - N/A   Overcast
10:55 PM 41.0 °F 35.2 °F 41.0 °F 100% 30.08 in 2.0 mi East 9.2 mph - N/A   Overcast
11:15 PM 41.0 °F - 41.0 °F 100% 30.12 in 2.0 mi Calm Calm - N/A   Light Drizzle
11:35 PM 41.0 °F - 41.0 °F 100% 30.13 in 2.5 mi Calm Calm - N/A Rain Light Rain
11:55 PM 41.0 °F 37.1 °F 41.0 °F 100% 30.11 in 3.0 mi NNE 5.8 mph - N/A Rain Rain